When you browse on this site, cookies collect data to enhance your experience and personalize the content and advertising you see.
Visit our Privacy Policy to learn more. By continuing to use the site, you agree to this use of cookies and data.
  • En España
  • Lista de países
  • Para 7 días
  • Temperatura del agua
  • Mapa Satelital
  • El tiempo en el mapa
  • Informadores
  • user-avatar
    Iniciar sesión

    Tiempo cada hora Petrovac

    Hoy, 19 Febrero, Martes

    Tiempo Temperatura Precipitaciones Viento Presión Humedad
    00:00 +7°C° 0 mm 1 mps 749 mmHg 75%
    01:00 +6°C° 0 mm 1 mps 749 mmHg 75%
    02:00 +6°C° 0 mm 1 mps 749 mmHg 75%
    03:00 +5°C° 0 mm 2 mps 749 mmHg 75%
    04:00 +5°C° 0 mm 2 mps 749 mmHg 75%
    05:00 +4°C° 0 mm 2 mps 749 mmHg 75%
    06:00 +4°C° 0 mm 2 mps 749 mmHg 76%
    07:00 +4°C° 0 mm 2 mps 749 mmHg 76%
    08:00 +6°C° 0 mm 2 mps 749 mmHg 69%
    09:00 +8°C° 0 mm 2 mps 749 mmHg 62%
    10:00 +10°C° 0 mm 2 mps 749 mmHg 56%
    11:00 +13°C° 0 mm 2 mps 748 mmHg 52%
    12:00 +14°C° 0 mm 2 mps 748 mmHg 48%
    13:00 +15°C° 0 mm 2 mps 747 mmHg 44%
    14:00 +15°C° 0 mm 2 mps 747 mmHg 46%
    15:00 +14°C° 0 mm 2 mps 747 mmHg 48%
    16:00 +14°C° 0 mm 1 mps 747 mmHg 50%
    17:00 +13°C° 0 mm 1 mps 747 mmHg 55%
    18:00 +11°C° 0 mm 1 mps 747 mmHg 60%
    19:00 +10°C° 0 mm 1 mps 747 mmHg 65%
    20:00 +9°C° 0 mm 1 mps 747 mmHg 66%
    21:00 +9°C° 0 mm 1 mps 747 mmHg 67%
    22:00 +8°C° 0 mm 1 mps 748 mmHg 68%
    23:00 +8°C° 0 mm 1 mps 748 mmHg 68%

    Mañana, 20 Febrero, Miércoles

    Tiempo Temperatura Precipitaciones Viento Presión Humedad
    00:00 +7°C° 0 mm 1 mps 748 mmHg 68%
    01:00 +7°C° 0 mm 1 mps 748 mmHg 69%
    02:00 +7°C° 0 mm 1 mps 748 mmHg 70%
    03:00 +6°C° 0 mm 1 mps 748 mmHg 71%
    04:00 +6°C° 0 mm 1 mps 748 mmHg 72%
    05:00 +6°C° 0 mm 1 mps 748 mmHg 74%
    06:00 +5°C° 0 mm 1 mps 748 mmHg 77%
    07:00 +5°C° 0 mm 1 mps 748 mmHg 79%
    08:00 +6°C° 0 mm 2 mps 749 mmHg 74%
    09:00 +7°C° 0 mm 2 mps 749 mmHg 69%
    10:00 +9°C° 0 mm 2 mps 749 mmHg 65%
    11:00 +10°C° 0 mm 3 mps 749 mmHg 62%
    12:00 +11°C° 0 mm 3 mps 749 mmHg 60%
    13:00 +12°C° 0 mm 4 mps 749 mmHg 58%
    14:00 +12°C° 0 mm 4 mps 749 mmHg 58%
    15:00 +12°C° 0 mm 4 mps 749 mmHg 57%
    16:00 +12°C° 0 mm 3 mps 749 mmHg 56%
    17:00 +11°C° 0 mm 3 mps 749 mmHg 60%
    18:00 +9°C° 0 mm 2 mps 750 mmHg 64%
    19:00 +8°C° 0 mm 2 mps 750 mmHg 68%
    20:00 +8°C° 0 mm 2 mps 751 mmHg 69%
    21:00 +8°C° 0 mm 1 mps 751 mmHg 71%
    22:00 +8°C° 0 mm 1 mps 751 mmHg 72%
    23:00 +7°C° 0 mm 1 mps 752 mmHg 73%

    Pasado mañana, 21 Febrero, Jueves

    Tiempo Temperatura Precipitaciones Viento Presión Humedad
    00:00 +7°C° 0 mm 1 mps 752 mmHg 73%
    01:00 +6°C° 0 mm 1 mps 752 mmHg 74%
    02:00 +6°C° 0 mm 1 mps 752 mmHg 75%
    03:00 +5°C° 0 mm 1 mps 752 mmHg 76%
    04:00 +5°C° 0 mm 1 mps 752 mmHg 78%
    05:00 +4°C° 0 mm 1 mps 752 mmHg 78%
    06:00 +4°C° 0 mm 1 mps 752 mmHg 79%
    07:00 +4°C° 0 mm 1 mps 753 mmHg 79%
    08:00 +6°C° 0 mm 1 mps 753 mmHg 72%
    09:00 +8°C° 0 mm 1 mps 753 mmHg 65%
    10:00 +8°C° 0 mm 2 mps 753 mmHg 58%
    11:00 +9°C° 0 mm 2 mps 753 mmHg 55%
    12:00 +10°C° 0 mm 3 mps 752 mmHg 52%
    13:00 +11°C° 0 mm 4 mps 752 mmHg 49%
    14:00 +11°C° 0 mm 4 mps 752 mmHg 50%
    15:00 +11°C° 0 mm 4 mps 752 mmHg 51%
    16:00 +11°C° 0 mm 3 mps 751 mmHg 52%
    17:00 +10°C° 0 mm 3 mps 751 mmHg 57%
    18:00 +9°C° 0 mm 2 mps 751 mmHg 62%
    19:00 +9°C° 0 mm 1 mps 751 mmHg 67%
    20:00 +8°C° 0.1 mm 1 mps 751 mmHg 70%
    21:00 +8°C° 0.1 mm 1 mps 752 mmHg 72%
    22:00 +8°C° 0.1 mm 1 mps 752 mmHg 75%
    23:00 +7°C° 0.1 mm 2 mps 751 mmHg 78%

    22 Febrero, Viernes

    Tiempo Temperatura Precipitaciones Viento Presión Humedad
    00:00 +7°C° 0.1 mm 2 mps 751 mmHg 81%
    01:00 +7°C° 0.1 mm 3 mps 751 mmHg 84%
    02:00 +7°C° 0.2 mm 3 mps 750 mmHg 86%
    03:00 +7°C° 0.2 mm 3 mps 750 mmHg 89%
    04:00 +7°C° 0.2 mm 3 mps 749 mmHg 91%
    05:00 +7°C° 0.6 mm 3 mps 749 mmHg 91%
    06:00 +6°C° 0.6 mm 4 mps 749 mmHg 92%
    07:00 +5°C° 0.6 mm 4 mps 748 mmHg 92%
    08:00 +6°C° 1.9 mm 4 mps 748 mmHg 92%
    09:00 +6°C° 1.9 mm 4 mps 748 mmHg 92%
    10:00 +6°C° 1.9 mm 5 mps 748 mmHg 92%
    11:00 +6°C° 0.2 mm 5 mps 747 mmHg 89%
    12:00 +7°C° 0.2 mm 5 mps 747 mmHg 85%
    13:00 +7°C° 0.2 mm 6 mps 747 mmHg 82%
    14:00 +7°C° 0.1 mm 5 mps 747 mmHg 80%
    15:00 +8°C° 0.1 mm 5 mps 746 mmHg 78%
    16:00 +8°C° 0.1 mm 5 mps 746 mmHg 77%
    17:00 +7°C° 0 mm 5 mps 747 mmHg 76%
    18:00 +4°C° 0 mm 6 mps 747 mmHg 75%
    19:00 +3°C° 0 mm 6 mps 747 mmHg 75%
    20:00 +2°C° 0 mm 7 mps 748 mmHg 72%
    21:00 -1°C° 0 mm 7 mps 749 mmHg 69%
    22:00 -2°C° 0 mm 7 mps 750 mmHg 67%
    23:00 -2°C° 0.1 mm 6 mps 751 mmHg 68%

    23 Febrero, Sábado

    Tiempo Temperatura Precipitaciones Viento Presión Humedad
    00:00 -2°C° 0.1 mm 5 mps 752 mmHg 68%
    01:00 -2°C° 0.1 mm 5 mps 753 mmHg 69%
    02:00 -2°C° 0.2 mm 5 mps 754 mmHg 71%
    03:00 -2°C° 0.2 mm 4 mps 754 mmHg 72%
    04:00 -3°C° 0.2 mm 4 mps 755 mmHg 74%
    05:00 -2°C° 0.2 mm 3 mps 756 mmHg 73%
    06:00 -2°C° 0.2 mm 3 mps 756 mmHg 73%
    07:00 -4°C° 0.2 mm 3 mps 757 mmHg 73%
    08:00 -2°C° 0.1 mm 3 mps 757 mmHg 68%
    09:00 -2°C° 0.1 mm 3 mps 758 mmHg 64%
    10:00 -2°C° 0.1 mm 2 mps 758 mmHg 59%
    11:00 -1°C° 0 mm 2 mps 758 mmHg 56%
    12:00 +1°C° 0 mm 2 mps 758 mmHg 52%
    13:00 +1°C° 0 mm 2 mps 758 mmHg 49%
    14:00 0°C° 0 mm 3 mps 757 mmHg 46%
    15:00 0°C° 0 mm 3 mps 757 mmHg 44%
    16:00 0°C° 0 mm 3 mps 757 mmHg 42%
    17:00 -1°C° 0 mm 3 mps 757 mmHg 47%
    18:00 -2°C° 0 mm 3 mps 757 mmHg 52%
    19:00 -3°C° 0 mm 2 mps 757 mmHg 57%
    20:00 -3°C° 0 mm 2 mps 757 mmHg 58%
    21:00 -3°C° 0 mm 2 mps 757 mmHg 59%
    22:00 -1°C° 0 mm 1 mps 757 mmHg 60%
    23:00 -2°C° 0 mm 1 mps 757 mmHg 61%

    24 Febrero, Domingo

    Tiempo Temperatura Precipitaciones Viento Presión Humedad
    00:00 -2°C° 0 mm 1 mps 757 mmHg 61%
    01:00 -2°C° 0 mm 1 mps 756 mmHg 61%
    02:00 -2°C° 0 mm 1 mps 756 mmHg 61%
    03:00 -2°C° 0 mm 1 mps 756 mmHg 62%
    04:00 -2°C° 0 mm 1 mps 756 mmHg 62%
    05:00 -2°C° 0 mm 1 mps 756 mmHg 61%
    06:00 -2°C° 0 mm 1 mps 756 mmHg 60%
    07:00 -2°C° 0 mm 1 mps 756 mmHg 59%
    08:00 -1°C° 0 mm 1 mps 756 mmHg 53%
    09:00 +1°C° 0 mm 1 mps 756 mmHg 46%
    10:00 +1°C° 0 mm 2 mps 756 mmHg 39%
    11:00 +2°C° 0 mm 2 mps 756 mmHg 37%
    12:00 +2°C° 0 mm 2 mps 756 mmHg 36%
    13:00 +3°C° 0 mm 2 mps 756 mmHg 34%
    14:00 +3°C° 0 mm 2 mps 755 mmHg 36%
    15:00 +2°C° 0 mm 3 mps 755 mmHg 39%
    16:00 +2°C° 0 mm 3 mps 755 mmHg 41%
    17:00 +2°C° 0 mm 2 mps 755 mmHg 47%
    18:00 -1°C° 0 mm 2 mps 756 mmHg 54%
    19:00 -2°C° 0 mm 2 mps 756 mmHg 60%
    20:00 -1°C° 0 mm 1 mps 756 mmHg 62%
    21:00 -1°C° 0 mm 1 mps 756 mmHg 64%
    22:00 -1°C° 0 mm 1 mps 756 mmHg 66%
    23:00 -1°C° 0 mm 1 mps 756 mmHg 66%
    Mostrar más